sat.trackr.live / text

‹ back to catalog

STARLINK-38006

NORAD 69755 · 2026-150S

PAYLOAD ACTIVE UNKNOWN

§ Identity

Operator
Country
US
Launch date
2026-07-02
Launch site
AFWTR
Launch vehicle
Mass (kg)
RCS (m²)

Purposes: comms

External: N2YO · Heavens-Above · Gunter

§ Orbital elements

Epoch: 2026-09-20T00:02:09.141216Z

Period
93.91 min
Inclination
97.2847°
Eccentricity
0.0001688
Mean motion
15.33439829 rev/d
Perigee alt
464.4 km
Apogee alt
466.7 km
Semi-major
6,843.7 km
B*
2.0600e-4
RAAN
102.0014°
Arg perigee
88.1295°
Mean anomaly
272.0141°
Rev number
1,366

§ Raw data

STARLINK-380061 69755U 26150S   26263.00149469  .00006580  00000+0  20600-3 0  99972 69755  97.2847 102.0014 0001688  88.1295 272.0141 15.33439829 13665

JSON: /api/v1/satellites/69755 · /tle

For live sub-satellite position, see the globe view (requires WebGL).

§ Visibility from observer

Set your observer location to see the next 7 days of passes ≥ 10°. The values pass through the URL so the page stays shareable.

No JS? Fill the form by hand. The geolocation button needs JavaScript.